Tracking 21606 objects as of 24-Oct-2020
HD Live streaming from Space Station
objects crossing your sky now

COSMOS 1637

Track COSMOS 1637 now!
10-day predictions
COSMOS 1637 is classified as:


NORAD ID: 15619
Int'l Code: 1985-023C
Perigee: 1,472.0 km
Apogee: 1,494.7 km
Inclination: 74.1 °
Period: 115.5 minutes
Semi major axis: 7854 km
RCS: 0.7025 m2 (medium)
Launch date: March 21, 1985
Source: Commonwealth of Independent States (former USSR) (CIS)
Launch site: PLESETSK MISSILE AND SPACE COMPLEX (PKMTR)
aabbcc
Your satellite tracking list
Your tracking list is empty




NASA's NSSDC Master Catalog

Two Line Element Set (TLE):
1 15619U 85023C   20298.23786734 -.00000007 +00000-0 +56373-4 0  9997
2 15619 074.0536 311.1146 0014436 143.0302 291.3741 12.47205349620694
Source of the keplerian elements: AFSPC